NIMBUS 2 DEB, 28615

Orbit data source: Space-Track

NIMBUS 2 DEB, 28615 is space debris in SSO originally from a launch on Sun, 15 May 1966 UTC launched from the Air Force Western Test Range (AFWTR). Debris objects in space refer to the collection of defunct objects orbiting the Earth. Examples of debris include non-operational satellites, rocket bodies, and fragments generated from explosions, collisions, or faulty payload assembly.

Loading next visibility...
Identifier
28615, 1966-040AE
Orbit
SSO
Country
Flag of USUS
Related business
Manufacturer
Unknown
Mission
Spacecraft
Bus & Motor
Unknown
Mass
Unknown
Launch date (UTC)
1966-05-15 (59 years ago)
Launch vehicle
Unknown
Launch site
Air Force Western Test Range (AFWTR)
Object type
Payload
Rocket body
Debris
Shape & HBR
Unknown shape, 0.1 m
Radar Cross Section
Small (<0.1 m²)

Expand to show TLE details & history
Last TLE update: 23 hours ago

TLE from 23 hours ago
0 NIMBUS 2 DEB
1 28615U 66040AE  25306.32046728  .00006145  00000-0  50137-2 0  9990
2 28615 100.2641  70.9198 0030712  23.1899  34.4487 13.89881065574248
Epoch: 2025-11-02T07:41Z
TLE epoch observation values (Epoch: 2025-11-02T07:41:28.372Z)
Latitude
56.50813°
Longitude
-102.08383°
Altitude
919.906 km
Speed
7.407 km/s
True Right ascension
03h 40m 29s
True Declination
56° 21' 11"
Sunlit
Object was in full shadow at epoch
Visualization orbit readout
Latitude
Unknown
Longitude
Unknown
Altitude
Unknown
Speed
Unknown
Apparent Right ascension
Unknown
Apparent Declination
Unknown
Sunlit
N/A
Visualization observer readout
Local Sidereal Time
02:45:50
Azimuth
Unknown
Elevation
Unknown
Doppler factor
Unknown
Orbital elements
Apogee altitude
948.76 km
Perigee altitude
903.893 km
Semi-major axis
7,304.463 km
Eccentricity
0.00307
Inclination
100.2641°
RAAN
70.9198°
Arg. of periapsis
23.1899°
True anomaly
34.64841°
Mean anomaly
34.4487°
Eccentric anomaly
34.54849°
Mean motion
3.47665 °/min
Orbital period
103.55 mins
BSTAR
0.0050137
Loading maneuver chart data...
Computing Atmospheric mass density...
Loading historical data...
Loading historical data...
Loading historical data...
Loading historical data...
Loading historical data...
Loading historical data...
Loading historical data...

Documentation

Showing up to 5 results
|